When you browse on this site, cookies collect data to enhance your experience and personalize the content and advertising you see.
Visit our Privacy Policy to learn more. By continuing to use the site, you agree to this use of cookies and data.
  • In Deutschland
  • Länderverzeichnis
  • Für 7 Tage
  • Wassertemperatur
  • Wetterkarte
  • Widgets
  • user-avatar
    Anmelden

    Stündliche Wetter Uige

    Heute, 9 Dezember, Montag

    Zeit Temperatur Niederschläge Wind Luftdruck Luftfeuchtigkeit
    00:00 +19°C° 0 mm 0 m/S 690 mmHg 98%
    01:00 +19°C° 0 mm 0 m/S 690 mmHg 99%
    02:00 +19°C° 0 mm 0 m/S 690 mmHg 99%
    03:00 +19°C° 0 mm 0 m/S 690 mmHg 98%
    04:00 +20°C° 0 mm 0 m/S 690 mmHg 98%
    05:00 +20°C° 0 mm 0 m/S 690 mmHg 97%
    06:00 +20°C° 0 mm 0 m/S 691 mmHg 95%
    07:00 +22°C° 0 mm 1 m/S 691 mmHg 94%
    08:00 +23°C° 0 mm 1 m/S 691 mmHg 86%
    09:00 +25°C° 0 mm 1 m/S 692 mmHg 79%
    10:00 +26°C° 0 mm 1 m/S 692 mmHg 71%
    11:00 +27°C° 0 mm 2 m/S 691 mmHg 65%
    12:00 +28°C° 0 mm 2 m/S 691 mmHg 60%
    13:00 +30°C° 0 mm 2 m/S 690 mmHg 53%
    14:00 +29°C° 0 mm 2 m/S 690 mmHg 58%
    15:00 +28°C° 0 mm 3 m/S 689 mmHg 62%
    16:00 +28°C° 0 mm 3 m/S 689 mmHg 66%
    17:00 +26°C° 0.1 mm 2 m/S 689 mmHg 76%
    18:00 +24°C° 0.1 mm 2 m/S 689 mmHg 86%
    19:00 +22°C° 0.1 mm 1 m/S 690 mmHg 96%
    20:00 +22°C° 0 mm 1 m/S 690 mmHg 96%
    21:00 +21°C° 0 mm 1 m/S 691 mmHg 96%
    22:00 +21°C° 0 mm 1 m/S 691 mmHg 96%
    23:00 +21°C° 0 mm 1 m/S 691 mmHg 97%

    Morgen, 10 Dezember, Dienstag

    Zeit Temperatur Niederschläge Wind Luftdruck Luftfeuchtigkeit
    00:00 +19°C° 0 mm 0 m/S 691 mmHg 97%
    01:00 +18°C° 0 mm 0 m/S 690 mmHg 98%
    02:00 +18°C° 0 mm 0 m/S 690 mmHg 98%
    03:00 +20°C° 0 mm 1 m/S 690 mmHg 98%
    04:00 +20°C° 0 mm 1 m/S 689 mmHg 98%
    05:00 +20°C° 0 mm 1 m/S 690 mmHg 96%
    06:00 +19°C° 0 mm 0 m/S 690 mmHg 94%
    07:00 +19°C° 0 mm 0 m/S 691 mmHg 93%
    08:00 +24°C° 0 mm 1 m/S 691 mmHg 82%
    09:00 +26°C° 0 mm 1 m/S 692 mmHg 71%
    10:00 +28°C° 0 mm 1 m/S 692 mmHg 60%
    11:00 +29°C° 0 mm 1 m/S 692 mmHg 58%
    12:00 +29°C° 0 mm 2 m/S 691 mmHg 55%
    13:00 +30°C° 0 mm 2 m/S 691 mmHg 53%
    14:00 +29°C° 0 mm 2 m/S 690 mmHg 57%
    15:00 +28°C° 0 mm 2 m/S 689 mmHg 61%
    16:00 +28°C° 0 mm 2 m/S 689 mmHg 65%
    17:00 +26°C° 0 mm 2 m/S 689 mmHg 74%
    18:00 +24°C° 0 mm 1 m/S 689 mmHg 83%
    19:00 +22°C° 0 mm 1 m/S 689 mmHg 91%
    20:00 +21°C° 0 mm 1 m/S 690 mmHg 93%
    21:00 +19°C° 0 mm 0 m/S 690 mmHg 95%
    22:00 +19°C° 0 mm 0 m/S 691 mmHg 96%
    23:00 +18°C° 0 mm 0 m/S 691 mmHg 97%

    übermorgen, 11 Dezember, Mittwoch

    Zeit Temperatur Niederschläge Wind Luftdruck Luftfeuchtigkeit
    00:00 +18°C° 0 mm 0 m/S 690 mmHg 98%
    01:00 +18°C° 0 mm 0 m/S 690 mmHg 99%
    02:00 +18°C° 0 mm 0 m/S 690 mmHg 98%
    03:00 +18°C° 0 mm 0 m/S 690 mmHg 97%
    04:00 +18°C° 0 mm 0 m/S 689 mmHg 97%
    05:00 +21°C° 0 mm 1 m/S 690 mmHg 95%
    06:00 +21°C° 0 mm 1 m/S 691 mmHg 93%
    07:00 +22°C° 0 mm 1 m/S 691 mmHg 92%
    08:00 +24°C° 0 mm 1 m/S 692 mmHg 80%
    09:00 +27°C° 0 mm 1 m/S 692 mmHg 69%
    10:00 +29°C° 0 mm 1 m/S 692 mmHg 58%
    11:00 +30°C° 0 mm 1 m/S 692 mmHg 54%
    12:00 +31°C° 0 mm 1 m/S 691 mmHg 50%
    13:00 +31°C° 0 mm 1 m/S 691 mmHg 46%
    14:00 +30°C° 0 mm 1 m/S 690 mmHg 52%
    15:00 +29°C° 0 mm 1 m/S 689 mmHg 58%
    16:00 +28°C° 0 mm 1 m/S 689 mmHg 63%
    17:00 +27°C° 0 mm 1 m/S 689 mmHg 69%
    18:00 +25°C° 0 mm 1 m/S 689 mmHg 75%
    19:00 +23°C° 0 mm 1 m/S 690 mmHg 80%
    20:00 +23°C° 0 mm 1 m/S 690 mmHg 82%
    21:00 +20°C° 0 mm 0 m/S 691 mmHg 84%
    22:00 +20°C° 0 mm 0 m/S 691 mmHg 85%
    23:00 +19°C° 0 mm 0 m/S 691 mmHg 87%

    12 Dezember, Donnerstag

    Zeit Temperatur Niederschläge Wind Luftdruck Luftfeuchtigkeit
    00:00 +19°C° 0 mm 0 m/S 691 mmHg 89%
    01:00 +18°C° 0 mm 0 m/S 690 mmHg 91%
    02:00 +18°C° 0 mm 0 m/S 690 mmHg 92%
    03:00 +18°C° 0 mm 0 m/S 690 mmHg 94%
    04:00 +18°C° 0 mm 0 m/S 690 mmHg 95%
    05:00 +18°C° 0 mm 0 m/S 690 mmHg 92%
    06:00 +19°C° 0 mm 0 m/S 691 mmHg 89%
    07:00 +20°C° 0 mm 0 m/S 691 mmHg 86%
    08:00 +22°C° 0 mm 0 m/S 692 mmHg 79%
    09:00 +24°C° 0 mm 0 m/S 692 mmHg 72%
    10:00 +26°C° 0 mm 0 m/S 693 mmHg 66%
    11:00 +26°C° 0.1 mm 0 m/S 692 mmHg 63%
    12:00 +29°C° 0.1 mm 1 m/S 692 mmHg 61%
    13:00 +29°C° 0.1 mm 1 m/S 691 mmHg 59%
    14:00 +27°C° 0.4 mm 1 m/S 691 mmHg 69%
    15:00 +26°C° 0.4 mm 1 m/S 690 mmHg 78%
    16:00 +24°C° 0.4 mm 1 m/S 689 mmHg 88%
    17:00 +23°C° 0.1 mm 1 m/S 690 mmHg 90%
    18:00 +22°C° 0.1 mm 1 m/S 690 mmHg 91%
    19:00 +22°C° 0.1 mm 1 m/S 690 mmHg 93%
    20:00 +21°C° 0 mm 1 m/S 690 mmHg 93%
    21:00 +21°C° 0 mm 1 m/S 691 mmHg 92%
    22:00 +19°C° 0 mm 0 m/S 691 mmHg 92%
    23:00 +21°C° 0 mm 1 m/S 691 mmHg 92%

    13 Dezember, Freitag

    Zeit Temperatur Niederschläge Wind Luftdruck Luftfeuchtigkeit
    00:00 +20°C° 0 mm 1 m/S 691 mmHg 92%
    01:00 +20°C° 0 mm 1 m/S 690 mmHg 92%
    02:00 +20°C° 0 mm 1 m/S 690 mmHg 92%
    03:00 +20°C° 0 mm 1 m/S 690 mmHg 92%
    04:00 +20°C° 0 mm 1 m/S 690 mmHg 92%
    05:00 +21°C° 0 mm 1 m/S 690 mmHg 90%
    06:00 +21°C° 0 mm 1 m/S 691 mmHg 88%
    07:00 +22°C° 0 mm 1 m/S 691 mmHg 86%
    08:00 +23°C° 0 mm 0 m/S 692 mmHg 76%
    09:00 +25°C° 0 mm 0 m/S 692 mmHg 65%
    10:00 +28°C° 0 mm 0 m/S 693 mmHg 54%
    11:00 +29°C° 0 mm 0 m/S 692 mmHg 53%
    12:00 +31°C° 0 mm 1 m/S 692 mmHg 51%
    13:00 +32°C° 0 mm 1 m/S 691 mmHg 49%
    14:00 +30°C° 0.5 mm 1 m/S 690 mmHg 59%
    15:00 +28°C° 0.5 mm 1 m/S 689 mmHg 68%
    16:00 +24°C° 0.5 mm 0 m/S 688 mmHg 78%
    17:00 +23°C° 0.2 mm 0 m/S 689 mmHg 79%
    18:00 +22°C° 0.2 mm 0 m/S 689 mmHg 80%
    19:00 +21°C° 0.2 mm 0 m/S 690 mmHg 81%
    20:00 +20°C° 0 mm 0 m/S 690 mmHg 81%
    21:00 +20°C° 0 mm 0 m/S 691 mmHg 81%
    22:00 +21°C° 0 mm 1 m/S 691 mmHg 80%
    23:00 +21°C° 0 mm 1 m/S 691 mmHg 78%

    14 Dezember, Samstag

    Zeit Temperatur Niederschläge Wind Luftdruck Luftfeuchtigkeit
    00:00 +18°C° 0 mm 0 m/S 690 mmHg 76%
    01:00 +18°C° 0 mm 0 m/S 690 mmHg 74%
    02:00 +18°C° 0 mm 0 m/S 690 mmHg 73%
    03:00 +18°C° 0 mm 0 m/S 690 mmHg 72%
    04:00 +20°C° 0 mm 1 m/S 690 mmHg 70%
    05:00 +18°C° 0 mm 0 m/S 690 mmHg 71%
    06:00 +19°C° 0 mm 0 m/S 691 mmHg 71%
    07:00 +19°C° 0 mm 0 m/S 691 mmHg 72%
    08:00 +20°C° 0 mm 0 m/S 691 mmHg 71%
    09:00 +22°C° 0 mm 0 m/S 692 mmHg 69%
    10:00 +23°C° 0 mm 0 m/S 692 mmHg 68%
    11:00 +24°C° 0 mm 0 m/S 692 mmHg 65%
    12:00 +25°C° 0 mm 0 m/S 691 mmHg 62%
    13:00 +28°C° 0 mm 1 m/S 690 mmHg 59%
    14:00 +28°C° 0.1 mm 1 m/S 690 mmHg 61%
    15:00 +28°C° 0.1 mm 1 m/S 689 mmHg 64%
    16:00 +28°C° 0.1 mm 1 m/S 689 mmHg 66%
    17:00 +26°C° 0.1 mm 1 m/S 689 mmHg 71%
    18:00 +24°C° 0.1 mm 1 m/S 689 mmHg 76%
    19:00 +20°C° 0.1 mm 0 m/S 689 mmHg 81%
    20:00 +20°C° 0 mm 0 m/S 690 mmHg 81%
    21:00 +20°C° 0 mm 0 m/S 690 mmHg 81%
    22:00 +20°C° 0 mm 0 m/S 691 mmHg 80%
    23:00 +19°C° 0.2 mm 0 m/S 691 mmHg 83%
    Mehr zeigen